TimePDT,TemperatureF,Dew PointF,Humidity,Sea Level PressureIn,VisibilityMPH,Wind Direction,Wind SpeedMPH,Gust SpeedMPH,PrecipitationIn,Events,Conditions,WindDirDegrees,DateUTC
12:08 AM,32.0,32.0,100,29.92,0.2,WNW,8.1,-,0.00,Fog,Fog,300,2013-04-20 07:08:00
12:28 AM,33.8,33.8,100,29.92,0.5,WNW,8.1,-,0.00,Fog,Fog,290,2013-04-20 07:28:00
12:36 AM,33.8,33.8,100,29.92,1.8,WNW,8.1,-,0.00,,Overcast,290,2013-04-20 07:36:00
12:53 AM,33.1,33.1,100,29.84,1.0,WNW,5.8,-,0.00,Snow,Light Snow,300,2013-04-20 07:53:00
12:56 AM,33.8,33.8,100,29.93,0.2,Variable,5.8,-,0.00,Fog-Snow,Light Snow,0,2013-04-20 07:56:00
1:06 AM,33.8,33.8,100,29.93,1.5,Variable,5.8,-,0.00,,Overcast,0,2013-04-20 08:06:00
1:13 AM,33.8,33.8,100,29.92,5.0,Variable,6.9,-,0.00,,Overcast,0,2013-04-20 08:13:00
1:53 AM,32.0,32.0,100,29.83,10.0,Variable,6.9,-,0.00,,Overcast,0,2013-04-20 08:53:00
2:04 AM,32.0,32.0,100,29.92,6.0,Variable,5.8,-,N/A,,Overcast,0,2013-04-20 09:04:00
2:14 AM,32.0,32.0,100,29.92,2.5,WNW,5.8,-,N/A,,Overcast,290,2013-04-20 09:14:00
2:22 AM,32.0,32.0,100,29.92,1.5,Variable,5.8,-,0.00,Snow,Light Snow,0,2013-04-20 09:22:00
2:26 AM,32.0,32.0,100,29.92,3.0,West,8.1,-,0.00,Snow,Light Snow,280,2013-04-20 09:26:00
2:40 AM,32.0,32.0,100,29.92,1.5,WNW,5.8,-,0.00,Snow,Light Snow,300,2013-04-20 09:40:00
2:44 AM,32.0,32.0,100,29.92,0.8,WNW,9.2,18.4,0.00,Snow,Light Snow,290,2013-04-20 09:44:00
2:51 AM,32.0,32.0,100,29.92,1.5,Variable,5.8,18.4,0.00,Snow,Light Snow,0,2013-04-20 09:51:00
2:53 AM,32.0,32.0,100,29.83,1.5,Variable,5.8,-,0.00,Snow,Light Snow,0,2013-04-20 09:53:00
3:02 AM,32.0,32.0,100,29.92,0.8,Variable,5.8,-,0.00,Snow,Light Snow,0,2013-04-20 10:02:00
3:13 AM,32.0,32.0,100,29.93,0.2,Variable,5.8,-,0.00,Fog-Snow,Light Snow,0,2013-04-20 10:13:00
3:53 AM,32.0,32.0,100,29.84,0.2,WSW,8.1,-,0.01,Fog-Snow,Light Snow,240,2013-04-20 10:53:00
4:46 AM,30.2,30.2,100,29.95,0.5,Variable,4.6,-,0.00,Fog-Snow,Light Snow,0,2013-04-20 11:46:00
4:53 AM,30.9,30.9,100,29.86,0.2,WSW,6.9,-,0.00,Fog,Light Freezing Fog,240,2013-04-20 11:53:00
5:53 AM,30.0,30.0,100,29.87,0.2,Variable,5.8,-,0.00,Fog-Snow,Light Snow,0,2013-04-20 12:53:00
6:04 AM,30.2,30.2,100,29.96,0.5,Variable,6.9,-,0.00,Fog-Snow,Light Snow,0,2013-04-20 13:04:00
6:33 AM,30.2,30.2,100,29.96,0.2,Variable,5.8,-,0.01,Fog-Snow,Light Snow,0,2013-04-20 13:33:00
6:53 AM,30.0,30.0,100,29.89,0.2,Variable,5.8,-,0.02,Fog-Snow,Light Snow,0,2013-04-20 13:53:00
7:53 AM,30.0,30.0,100,29.91,0.2,Variable,3.5,-,0.02,Fog-Snow,Light Snow,0,2013-04-20 14:53:00
8:53 AM,30.0,30.0,100,29.92,0.2,Variable,6.9,-,0.09,Fog-Snow,Snow,0,2013-04-20 15:53:00
9:26 AM,30.2,30.2,100,30.00,0.5,Variable,3.5,-,0.01,Fog-Snow,Light Snow,0,2013-04-20 16:26:00
9:53 AM,30.0,28.9,96,29.93,0.2,Variable,5.8,-,0.01,Fog-Snow,Light Snow,0,2013-04-20 16:53:00
10:53 AM,30.0,30.0,100,29.94,0.2,Variable,4.6,-,0.03,Fog-Snow,Light Snow,0,2013-04-20 17:53:00
11:53 AM,30.9,30.0,96,29.94,0.5,Variable,5.8,-,0.01,Fog-Snow,Light Snow,0,2013-04-20 18:53:00
12:35 PM,30.2,30.2,100,30.01,1.8,Variable,4.6,-,0.00,Snow,Light Snow,0,2013-04-20 19:35:00
12:42 PM,32.0,30.2,93,30.01,3.0,Variable,6.9,-,0.00,Snow,Light Snow,0,2013-04-20 19:42:00
12:53 PM,32.0,32.0,100,29.92,6.0,WSW,8.1,-,0.00,Snow,Light Snow,240,2013-04-20 19:53:00
1:13 PM,32.0,30.2,93,30.00,3.0,WSW,9.2,17.3,0.00,Snow,Light Snow,250,2013-04-20 20:13:00
1:16 PM,32.0,30.2,93,30.00,1.8,Variable,6.9,17.3,0.00,Snow,Light Snow,0,2013-04-20 20:16:00
1:23 PM,32.0,30.2,93,30.00,2.0,WSW,8.1,18.4,0.00,Snow,Light Snow,240,2013-04-20 20:23:00
1:26 PM,32.0,32.0,100,30.00,3.0,Variable,6.9,18.4,0.00,Snow,Light Snow,0,2013-04-20 20:26:00
1:32 PM,32.0,32.0,100,30.00,2.5,Variable,5.8,-,0.00,Snow,Light Snow,0,2013-04-20 20:32:00
1:34 PM,32.0,30.2,93,30.00,1.2,WSW,8.1,-,0.00,Snow,Light Snow,240,2013-04-20 20:34:00
1:42 PM,32.0,30.2,93,30.00,0.5,Variable,6.9,-,0.01,Fog-Snow,Light Snow,0,2013-04-20 20:42:00
1:49 PM,32.0,32.0,100,30.00,1.8,Variable,4.6,-,0.01,Snow,Light Snow,0,2013-04-20 20:49:00
1:53 PM,32.0,32.0,100,29.92,8.0,West,8.1,-,0.01,,Overcast,260,2013-04-20 20:53:00
2:09 PM,32.0,30.2,93,30.00,1.2,WSW,8.1,-,0.00,Snow,Light Snow,240,2013-04-20 21:09:00
2:13 PM,32.0,30.2,93,30.00,0.2,WSW,8.1,-,0.01,Fog-Snow,Snow,240,2013-04-20 21:13:00
2:21 PM,30.2,30.2,100,30.00,0.2,WSW,8.1,19.6,0.02,Fog-Snow,Light Snow,240,2013-04-20 21:21:00
2:26 PM,30.2,30.2,100,30.00,1.0,Variable,5.8,19.6,0.02,Snow,Light Snow,0,2013-04-20 21:26:00
2:28 PM,30.2,30.2,100,30.00,3.0,SW,8.1,-,0.02,Snow,Light Snow,230,2013-04-20 21:28:00
2:31 PM,30.2,30.2,100,30.00,1.2,WSW,10.4,17.3,0.02,Snow,Light Snow,240,2013-04-20 21:31:00
2:35 PM,30.2,30.2,100,30.00,0.2,WSW,9.2,17.3,0.03,Fog-Snow,Snow,250,2013-04-20 21:35:00
2:53 PM,30.9,30.9,100,29.92,0.2,Variable,6.9,-,0.04,Fog-Snow,Light Snow,0,2013-04-20 21:53:00
3:53 PM,32.0,30.9,96,29.92,0.2,Variable,5.8,-,0.04,Fog-Snow,Light Snow,0,2013-04-20 22:53:00
4:03 PM,30.2,30.2,100,29.99,0.2,Variable,5.8,-,0.00,Fog-Snow,Light Snow,0,2013-04-20 23:03:00
4:28 PM,30.2,30.2,100,29.99,0.5,Variable,4.6,-,0.00,Fog-Snow,Light Snow,0,2013-04-20 23:28:00
4:42 PM,30.2,30.2,100,29.98,0.2,Variable,6.9,-,0.00,Fog-Snow,Light Snow,0,2013-04-20 23:42:00
4:53 PM,30.9,30.9,100,29.91,0.2,Variable,5.8,-,0.00,Fog-Snow,Light Snow,0,2013-04-20 23:53:00
5:24 PM,32.0,32.0,100,29.98,0.2,Variable,6.9,-,0.00,Fog,Fog,0,2013-04-21 00:24:00
5:31 PM,30.2,30.2,100,29.98,0.2,Variable,4.6,-,0.00,Fog-Snow,Light Snow,0,2013-04-21 00:31:00
5:41 PM,32.0,30.2,93,29.98,1.5,Variable,5.8,-,0.00,,Overcast,0,2013-04-21 00:41:00
5:43 PM,32.0,30.2,93,29.98,4.0,Variable,6.9,-,0.00,,Overcast,0,2013-04-21 00:43:00
5:53 PM,32.0,30.9,96,29.91,9.0,Variable,5.8,-,0.00,,Overcast,0,2013-04-21 00:53:00
6:27 PM,32.0,30.2,93,29.98,10.0,West,8.1,-,0.00,,Overcast,260,2013-04-21 01:27:00
6:35 PM,30.2,30.2,100,29.98,10.0,WSW,9.2,16.1,0.00,,Overcast,250,2013-04-21 01:35:00
6:53 PM,30.9,30.9,100,29.91,9.0,WSW,9.2,17.3,0.00,,Overcast,250,2013-04-21 01:53:00
7:16 PM,30.2,30.2,100,29.98,6.0,Variable,6.9,21.9,0.00,Snow,Light Snow,0,2013-04-21 02:16:00
7:51 PM,30.2,30.2,100,29.98,5.0,WSW,10.4,19.6,0.00,Snow,Light Snow,240,2013-04-21 02:51:00
7:53 PM,30.9,30.9,100,29.91,5.0,WSW,9.2,19.6,0.00,Snow,Light Snow,250,2013-04-21 02:53:00
8:09 PM,30.2,30.2,100,29.99,9.0,Variable,6.9,-,0.00,,Overcast,0,2013-04-21 03:09:00
8:30 PM,30.2,30.2,100,29.98,9.0,Variable,4.6,-,0.00,,Overcast,0,2013-04-21 03:30:00
8:53 PM,30.9,30.9,100,29.92,10.0,SW,10.4,17.3,0.00,,Overcast,230,2013-04-21 03:53:00
9:00 PM,30.2,30.2,100,29.99,10.0,SW,12.7,20.7,0.00,,Overcast,230,2013-04-21 04:00:00
9:14 PM,32.0,30.2,93,29.99,10.0,WSW,10.4,23.0,0.00,,Overcast,250,2013-04-21 04:14:00
9:43 PM,30.2,30.2,100,29.99,10.0,West,10.4,23.0,0.00,,Overcast,270,2013-04-21 04:43:00
9:53 PM,30.9,30.9,100,29.92,10.0,West,10.4,24.2,0.00,,Overcast,270,2013-04-21 04:53:00
10:22 PM,30.2,30.2,100,29.99,10.0,Variable,4.6,-,N/A,,Overcast,0,2013-04-21 05:22:00
10:53 PM,30.9,30.9,100,29.92,10.0,Variable,6.9,-,N/A,,Overcast,0,2013-04-21 05:53:00
11:49 PM,30.2,28.4,93,29.99,10.0,WNW,8.1,26.5,N/A,,Overcast,290,2013-04-21 06:49:00
11:53 PM,30.0,28.9,96,29.93,10.0,WNW,11.5,26.5,N/A,,Overcast,290,2013-04-21 06:53:00